Change the Weather History Date:

Friday, September 13, 2013

  Actual Average Record
Temperature  
Mean Temperature 58 °F -  
Max Temperature 64 °F - 89 °F (1982)
Min Temperature 52 °F - 33 °F (1959)
Degree Days  
Heating Degree Days 7    
Month to date heating degree days 68  
Since 1 July heating degree days 139  
Cooling Degree Days 0    
Month to date cooling degree days 39  
Year to date cooling degree days 449  
Growing Degree Days 8 (Base 50)    
Moisture  
Dew Point 55 °F    
Average Humidity 90    
Maximum Humidity 97    
Minimum Humidity 83    
Precipitation  
Precipitation 0.15 in - 1.45 in (1974)
Month to date precipitation 2.44  
Year to date precipitation 19.31  
Sea Level Pressure  
Sea Level Pressure 29.72 in    
Wind  
Wind Speed 8 mph (NNW)    
Max Wind Speed 13 mph    
Max Gust Speed 20 mph    
Visibility 10 miles    
Events      
T = Trace of Precipitation, MM = Missing Value Source: NWS Daily Summary

Daily Weather History Graph

Daily Weather History Graph

Search for Another Location

Airport or City:

Trip Planner

Search our weather history database for the weather conditions in past years. The results will help you decide how hot, cold, wet, or windy it might be!

Date:

Astronomy

Sep. 13, 2013 Rise Set
Actual Time 6:29 AM EDT 7:05 PM EDT
Civil Twilight 6:00 AM EDT 7:34 PM EDT
Nautical Twilight 5:26 AM EDT 8:08 PM EDT
Astronomical Twilight 4:50 AM EDT 8:43 PM EDT
Moon 3:00 PM EDT (9/13) No Moon Set
Length of Visible Light 13h 33m
Length of Day
12h 36m
First Quarter, 61% of the Moon is Illuminated
Sep 13
First Quarter
Sep 19
Full
Sep 26
Last Quarter
Oct 4
New
Oct 11
First Quarter

Hourly Weather History & Observations

Time (EDT) Temp. Dew Point Humidity Pressure Visibility Wind Dir Wind Speed Gust Speed Precip Events Conditions
12:15 AM 64.4 °F 62.6 °F 94% 29.66 in 10.0 mi ESE 5.8 mph - N/A   Scattered Clouds
12:35 AM 64.4 °F 62.6 °F 94% 29.67 in 10.0 mi SE 3.5 mph - N/A   Mostly Cloudy
12:55 AM 64.4 °F 62.6 °F 94% 29.66 in 10.0 mi SE 8.1 mph - N/A   Overcast
1:15 AM 64.4 °F 62.6 °F 94% 29.67 in 10.0 mi Calm Calm - N/A   Overcast
1:35 AM 64.4 °F 62.6 °F 94% 29.67 in 10.0 mi Calm Calm - N/A   Overcast
1:55 AM 64.4 °F 62.6 °F 94% 29.67 in 10.0 mi SE 5.8 mph - N/A   Overcast
2:15 AM 64.4 °F 62.6 °F 94% 29.66 in 10.0 mi SE 4.6 mph - N/A   Overcast
2:35 AM 64.4 °F 62.6 °F 94% 29.65 in 10.0 mi ESE 3.5 mph - N/A   Overcast
2:55 AM 64.4 °F 62.6 °F 94% 29.65 in 10.0 mi SE 3.5 mph - N/A   Overcast
3:15 AM 64.4 °F 62.6 °F 94% 29.64 in 10.0 mi ESE 4.6 mph - N/A   Overcast
3:35 AM 64.4 °F 62.6 °F 94% 29.64 in 10.0 mi Calm Calm - N/A   Overcast
3:55 AM 64.4 °F 62.6 °F 94% 29.64 in 10.0 mi Calm Calm - N/A   Overcast
4:15 AM 64.4 °F 62.6 °F 94% 29.64 in 10.0 mi Calm Calm - N/A   Overcast
4:35 AM 64.4 °F 62.6 °F 94% 29.64 in 10.0 mi Calm Calm - N/A   Overcast
4:55 AM 64.4 °F 62.6 °F 94% 29.63 in 10.0 mi Calm Calm - N/A   Overcast
5:15 AM 64.4 °F 62.6 °F 94% 29.64 in 5.0 mi Calm Calm - N/A   Overcast
5:35 AM 62.6 °F 60.8 °F 94% 29.64 in 10.0 mi NNW 8.1 mph - N/A   Overcast
5:55 AM 62.6 °F 60.8 °F 94% 29.65 in 10.0 mi NNW 3.5 mph - N/A   Overcast
6:15 AM 62.6 °F 59.0 °F 88% 29.66 in 10.0 mi WNW 3.5 mph - N/A   Overcast
6:35 AM 60.8 °F 59.0 °F 94% 29.66 in 10.0 mi NNW 3.5 mph - 0.01 in   Overcast
6:55 AM 60.8 °F 59.0 °F 94% 29.67 in 7.0 mi Calm Calm - 0.04 in   Overcast
7:15 AM 60.8 °F 59.0 °F 94% 29.67 in 8.0 mi Calm Calm - 0.01 in   Overcast
7:35 AM 60.8 °F 59.0 °F 94% 29.67 in 7.0 mi NNW 4.6 mph - 0.02 in   Overcast
7:55 AM 60.8 °F 59.0 °F 94% 29.67 in 6.0 mi NNW 5.8 mph - 0.06 in   Overcast
8:15 AM 60.8 °F 59.0 °F 94% 29.67 in 10.0 mi NNW 5.8 mph - 0.01 in   Overcast
8:35 AM 60.8 °F 59.0 °F 94% 29.68 in 6.0 mi NW 10.4 mph - 0.01 in   Overcast
8:55 AM 60.8 °F 57.2 °F 88% 29.68 in 10.0 mi North 8.1 mph - 0.03 in   Mostly Cloudy
9:15 AM 59.0 °F 57.2 °F 94% 29.69 in 9.0 mi NNW 6.9 mph - 0.01 in   Overcast
9:35 AM 60.8 °F 59.0 °F 94% 29.69 in 10.0 mi NNW 6.9 mph - 0.01 in   Overcast
9:55 AM 60.8 °F 57.2 °F 88% 29.70 in 10.0 mi North 6.9 mph - 0.01 in   Overcast
10:15 AM 60.8 °F 57.2 °F 88% 29.70 in 10.0 mi NW 6.9 mph - N/A   Overcast
10:35 AM 59.0 °F 57.2 °F 94% 29.70 in 10.0 mi NNW 8.1 mph - N/A   Overcast
10:55 AM 57.2 °F 55.4 °F 94% 29.70 in 10.0 mi NNW 12.7 mph 19.6 mph N/A   Overcast
11:15 AM 57.2 °F 55.4 °F 94% 29.70 in 10.0 mi NNW 11.5 mph 18.4 mph N/A   Overcast
11:35 AM 57.2 °F 55.4 °F 94% 29.71 in 10.0 mi NNW 9.2 mph 17.3 mph N/A   Overcast
11:55 AM 57.2 °F 55.4 °F 94% 29.71 in 10.0 mi North 8.1 mph - N/A   Overcast
12:15 PM 57.2 °F 53.6 °F 88% 29.71 in 10.0 mi NNW 8.1 mph 16.1 mph N/A   Overcast
12:35 PM 57.2 °F 53.6 °F 88% 29.71 in 10.0 mi NNW 10.4 mph 17.3 mph N/A   Overcast
12:55 PM 57.2 °F 53.6 °F 88% 29.71 in 10.0 mi NW 10.4 mph 16.1 mph N/A   Overcast
1:15 PM 57.2 °F 53.6 °F 88% 29.72 in 10.0 mi NNW 6.9 mph - N/A   Overcast
1:35 PM 57.2 °F 53.6 °F 88% 29.73 in 10.0 mi NNW 9.2 mph 16.1 mph N/A   Overcast
1:55 PM 55.4 °F 51.8 °F 88% 29.72 in 10.0 mi NNW 12.7 mph 19.6 mph N/A   Overcast
2:15 PM 55.4 °F 51.8 °F 88% 29.73 in 10.0 mi NNW 9.2 mph 20.7 mph N/A   Overcast
2:35 PM 55.4 °F 53.6 °F 94% 29.73 in 10.0 mi NNW 8.1 mph 17.3 mph N/A   Overcast
2:55 PM 55.4 °F 51.8 °F 88% 29.73 in 10.0 mi NNW 10.4 mph - N/A   Overcast
3:15 PM 55.4 °F 53.6 °F 94% 29.73 in 10.0 mi NW 8.1 mph - N/A   Overcast
3:35 PM 55.4 °F 53.6 °F 94% 29.74 in 10.0 mi NNW 11.5 mph 17.3 mph 0.01 in   Overcast
3:55 PM 55.4 °F 53.6 °F 94% 29.74 in 10.0 mi NNW 6.9 mph 17.3 mph 0.01 in   Overcast
4:15 PM 55.4 °F 51.8 °F 88% 29.75 in 10.0 mi NW 6.9 mph - N/A   Overcast
4:35 PM 55.4 °F 53.6 °F 94% 29.76 in 10.0 mi NW 9.2 mph 17.3 mph N/A   Overcast
4:55 PM 55.4 °F 51.8 °F 88% 29.76 in 10.0 mi NNW 10.4 mph - N/A   Overcast
5:15 PM 55.4 °F 51.8 °F 88% 29.77 in 10.0 mi NW 8.1 mph 16.1 mph N/A   Overcast
5:35 PM 55.4 °F 51.8 °F 88% 29.76 in 10.0 mi NNW 8.1 mph - N/A   Overcast
5:55 PM 55.4 °F 51.8 °F 88% 29.77 in 10.0 mi NNW 8.1 mph - N/A   Overcast
6:15 PM 55.4 °F 51.8 °F 88% 29.77 in 10.0 mi NW 10.4 mph - N/A   Overcast
6:35 PM 55.4 °F 51.8 °F 88% 29.77 in 10.0 mi NNW 6.9 mph - N/A   Overcast
6:55 PM 53.6 °F 50.0 °F 88% 29.78 in 10.0 mi NNW 11.5 mph 17.3 mph N/A   Overcast
7:15 PM 53.6 °F 48.2 °F 82% 29.79 in 10.0 mi NW 10.4 mph 17.3 mph N/A   Overcast
7:35 PM 53.6 °F 48.2 °F 82% 29.80 in 10.0 mi NNW 8.1 mph - N/A   Overcast
7:55 PM 53.6 °F 48.2 °F 82% 29.82 in 10.0 mi NW 9.2 mph 16.1 mph N/A   Overcast
8:15 PM 53.6 °F 48.2 °F 82% 29.83 in 10.0 mi NNW 12.7 mph 17.3 mph N/A   Overcast
8:35 PM 53.6 °F 48.2 °F 82% 29.83 in 10.0 mi NNW 9.2 mph 17.3 mph N/A   Overcast
8:55 PM 53.6 °F 48.2 °F 82% 29.83 in 10.0 mi NNW 10.4 mph - N/A   Overcast
9:15 PM 53.6 °F 48.2 °F 82% 29.84 in 10.0 mi NW 9.2 mph - N/A   Overcast
9:35 PM 53.6 °F 50.0 °F 88% 29.84 in 10.0 mi NW 6.9 mph - N/A   Mostly Cloudy
9:55 PM 53.6 °F 48.2 °F 82% 29.85 in 10.0 mi NW 9.2 mph - N/A   Overcast
10:15 PM 53.6 °F 48.2 °F 82% 29.85 in 10.0 mi NNW 8.1 mph 19.6 mph N/A   Overcast
10:35 PM 51.8 °F 48.2 °F 88% 29.85 in 10.0 mi NNW 11.5 mph 17.3 mph N/A   Overcast
10:55 PM 51.8 °F 48.2 °F 88% 29.86 in 10.0 mi NNW 11.5 mph 17.3 mph N/A   Overcast
11:15 PM 51.8 °F 48.2 °F 88% 29.86 in 10.0 mi NNW 9.2 mph - N/A   Overcast
11:35 PM 51.8 °F 48.2 °F 88% 29.85 in 10.0 mi NNW 9.2 mph - N/A   Overcast
11:55 PM 51.8 °F 46.4 °F 82% 29.85 in 10.0 mi NNW 8.1 mph - N/A   Overcast